TimeEDT,TemperatureF,Dew PointF,Humidity,Sea Level PressureIn,VisibilityMPH,Wind Direction,Wind SpeedMPH,Gust SpeedMPH,PrecipitationIn,Events,Conditions,WindDirDegrees,DateUTC
12:53 AM,64.9,61.0,87,30.10,9.0,ESE,3.5,-,0.00,Rain,Light Rain,110,2012-09-28 04:53:00
1:53 AM,64.9,61.0,87,30.09,8.0,ESE,3.5,-,0.00,,Overcast,110,2012-09-28 05:53:00
2:03 AM,64.4,62.6,94,30.13,3.0,West,3.5,-,0.07,Rain,Rain,270,2012-09-28 06:03:00
2:05 AM,64.4,62.6,94,30.12,1.8,Calm,Calm,-,0.12,Rain,Heavy Rain,0,2012-09-28 06:05:00
2:18 AM,64.4,62.6,94,30.12,3.0,Calm,Calm,-,0.19,Rain,Light Rain,0,2012-09-28 06:18:00
2:28 AM,64.4,62.6,94,30.11,4.0,East,4.6,-,0.22,Rain,Light Rain,80,2012-09-28 06:28:00
2:53 AM,64.9,63.0,93,30.09,5.0,Variable,3.5,-,0.22,,Overcast,0,2012-09-28 06:53:00
3:34 AM,64.4,62.6,94,30.09,5.0,ESE,4.6,-,0.00,,Overcast,110,2012-09-28 07:34:00
3:46 AM,64.4,62.6,94,30.09,4.0,Calm,Calm,-,0.00,,Overcast,0,2012-09-28 07:46:00
3:53 AM,64.9,64.0,97,30.08,4.0,Calm,Calm,-,0.00,,Overcast,0,2012-09-28 07:53:00
4:26 AM,64.4,64.4,100,30.10,3.0,Calm,Calm,-,N/A,,Overcast,0,2012-09-28 08:26:00
4:51 AM,66.2,64.4,94,30.09,3.0,NNE,3.5,-,N/A,,Overcast,30,2012-09-28 08:51:00
4:53 AM,66.0,64.0,93,30.06,3.0,NNE,3.5,-,N/A,,Overcast,30,2012-09-28 08:53:00
5:00 AM,66.2,64.4,94,30.08,3.0,East,3.5,-,N/A,,Overcast,100,2012-09-28 09:00:00
5:15 AM,66.2,64.4,94,30.07,5.0,ESE,6.9,-,N/A,,Overcast,120,2012-09-28 09:15:00
5:23 AM,66.2,64.4,94,30.07,4.0,ESE,5.8,-,N/A,,Overcast,110,2012-09-28 09:23:00
5:40 AM,66.2,64.4,94,30.06,3.0,ESE,4.6,-,N/A,,Overcast,110,2012-09-28 09:40:00
5:53 AM,66.0,64.0,93,30.04,4.0,ESE,5.8,-,N/A,,Overcast,120,2012-09-28 09:53:00
6:17 AM,66.2,64.4,94,30.06,4.0,SE,4.6,-,N/A,,Overcast,140,2012-09-28 10:17:00
6:53 AM,66.0,64.9,96,30.05,3.0,SSE,3.5,-,N/A,,Overcast,160,2012-09-28 10:53:00
7:00 AM,66.2,64.4,94,30.07,3.0,SE,4.6,-,N/A,,Overcast,140,2012-09-28 11:00:00
7:16 AM,66.2,64.4,94,30.07,2.0,SE,3.5,-,N/A,,Overcast,140,2012-09-28 11:16:00
7:30 AM,66.2,64.4,94,30.06,2.0,SSE,3.5,-,0.00,Rain,Light Rain,150,2012-09-28 11:30:00
7:53 AM,66.9,64.9,93,30.04,2.5,SSE,4.6,-,0.01,Rain,Light Rain,150,2012-09-28 11:53:00
8:05 AM,66.2,64.4,94,30.06,2.5,SSE,3.5,-,0.00,Rain,Light Rain,160,2012-09-28 12:05:00
8:37 AM,66.2,66.2,100,30.05,2.0,SSE,3.5,-,0.01,Rain,Light Rain,160,2012-09-28 12:37:00
8:53 AM,68.0,66.0,93,30.03,3.0,South,3.5,-,0.01,Rain,Light Rain,190,2012-09-28 12:53:00
9:20 AM,68.0,66.2,94,30.04,4.0,South,3.5,-,0.00,Rain,Light Rain,180,2012-09-28 13:20:00
9:53 AM,69.1,66.0,90,30.02,4.0,SSW,9.2,-,0.00,,Overcast,200,2012-09-28 13:53:00
10:10 AM,69.8,66.2,88,30.04,4.0,South,8.1,-,N/A,,Overcast,180,2012-09-28 14:10:00
10:22 AM,69.8,66.2,88,30.03,4.0,South,5.8,-,N/A,,Overcast,190,2012-09-28 14:22:00
10:29 AM,69.8,66.2,88,30.03,4.0,SSW,4.6,-,N/A,,Overcast,210,2012-09-28 14:29:00
10:53 AM,70.0,66.9,90,30.01,5.0,SSW,5.8,-,N/A,,Overcast,200,2012-09-28 14:53:00
11:22 AM,69.8,66.2,88,30.02,5.0,SW,4.6,-,N/A,,Overcast,220,2012-09-28 15:22:00
11:31 AM,71.6,66.2,83,30.02,5.0,SSW,5.8,-,N/A,,Overcast,210,2012-09-28 15:31:00
11:40 AM,71.6,66.2,83,30.01,6.0,SW,5.8,-,N/A,,Overcast,220,2012-09-28 15:40:00
11:53 AM,72.0,66.9,84,29.99,7.0,SSW,4.6,-,N/A,,Mostly Cloudy,210,2012-09-28 15:53:00
12:46 PM,75.2,64.4,69,29.99,10.0,SW,9.2,-,N/A,,Mostly Cloudy,220,2012-09-28 16:46:00
12:53 PM,75.9,64.9,69,29.97,10.0,WSW,9.2,-,N/A,,Mostly Cloudy,240,2012-09-28 16:53:00
1:29 PM,75.2,64.4,69,29.97,10.0,WSW,6.9,-,N/A,,Mostly Cloudy,250,2012-09-28 17:29:00
1:40 PM,75.2,64.4,69,29.97,10.0,WSW,4.6,-,N/A,,Mostly Cloudy,250,2012-09-28 17:40:00
1:53 PM,75.9,64.0,67,29.94,10.0,NW,6.9,-,N/A,,Mostly Cloudy,310,2012-09-28 17:53:00
3:53 PM,75.9,60.1,58,29.92,10.0,WNW,8.1,-,N/A,,Partly Cloudy,290,2012-09-28 19:53:00
4:53 PM,75.9,61.0,60,29.91,10.0,NW,6.9,-,N/A,,Partly Cloudy,320,2012-09-28 20:53:00
5:53 PM,73.0,63.0,71,29.91,10.0,North,4.6,-,N/A,,Scattered Clouds,360,2012-09-28 21:53:00
6:53 PM,72.0,63.0,73,29.91,10.0,NNE,4.6,-,N/A,,Overcast,30,2012-09-28 22:53:00
7:53 PM,70.0,63.0,78,29.92,9.0,NNE,5.8,-,N/A,,Mostly Cloudy,30,2012-09-28 23:53:00
8:53 PM,68.0,63.0,84,29.93,10.0,East,4.6,-,N/A,,Overcast,90,2012-09-29 00:53:00
9:53 PM,66.9,61.0,81,29.93,10.0,NNE,5.8,-,N/A,,Scattered Clouds,20,2012-09-29 01:53:00
10:10 PM,66.2,60.8,83,29.95,10.0,North,6.9,-,N/A,,Overcast,10,2012-09-29 02:10:00
10:33 PM,64.4,60.8,88,29.95,10.0,North,6.9,-,N/A,,Overcast,360,2012-09-29 02:33:00
10:51 PM,64.4,60.8,88,29.94,10.0,NNE,6.9,-,N/A,,Overcast,20,2012-09-29 02:51:00
10:53 PM,64.0,60.1,87,29.93,10.0,NNE,8.1,-,N/A,,Overcast,20,2012-09-29 02:53:00
11:02 PM,64.4,60.8,88,29.95,10.0,North,6.9,-,N/A,,Overcast,10,2012-09-29 03:02:00
11:33 PM,62.6,59.0,88,29.94,10.0,NNE,5.8,-,N/A,,Overcast,20,2012-09-29 03:33:00
11:53 PM,62.1,59.0,90,29.92,10.0,North,3.5,-,N/A,,Overcast,10,2012-09-29 03:53:00